Satellite: INMARSAT 3-F1
Catalog number: 23839
Epoch time:      103050.71694242
Element set:     870 
Inclination:        0.0528 deg
RA of node:       349.6902 deg
Eccentricity:    0.0005362
Arg of perigee:   337.8959 deg
Mean anomaly:     143.6867 deg
Mean motion:    1.00274866 rev/day
Decay rate:    1.1000E-007 rev/day^2
Epoch rev:            2522
Checksum:              294

Satellite: ASTRA 1F
Catalog number: 23842
Epoch time:      103049.00000000
Element set:     560 
Inclination:        0.0122 deg
RA of node:       319.8851 deg
Eccentricity:    0.0002995
Arg of perigee:    65.1991 deg
Mean anomaly:     141.6521 deg
Mean motion:    1.00273184 rev/day
Decay rate:    1.1600E-006 rev/day^2
Epoch rev:            2511
Checksum:              221

Satellite: JAS 2
Catalog number: 24278
Epoch time:      103051.90822265
Element set:     571 
Inclination:       98.5355 deg
RA of node:       202.8092 deg
Eccentricity:    0.0350246
Arg of perigee:   210.3270 deg
Mean anomaly:     147.7184 deg
Mean motion:   13.52872823 rev/day
Decay rate:    1.1000E-007 rev/day^2
Epoch rev:           32162
Checksum:              277

Satellite: UNAMSAT
Catalog number: 24305
Epoch time:      103052.Element set:     664 
Inclination:       82.9292 deg
RA of node:       260.5783 deg
Eccentricity:    0.0029832
Arg of perigee:   191.9495 deg
Mean anomaly:     168.0939 deg
Mean motion:   13.73451763 rev/day
Decay rate:    2.0499E-006 rev/day^2
Epoch rev:           32389
Checksum:              343

Satellite: INMARSAT 3-F2
Catalog number: 24307
Epoch time:      103048.16355904
Element set:     82 
Inclination:        0.0603 deg
RA of node:        13.0422 deg
Eccentricity:    0.0005875
Arg of perigee:   324.1064 deg
Mean anomaly:     212.9403 deg
Mean motion:    1.00272441 rev/day
Decay rate:   -1.2599E-006 rev/day^2
Epoch rev:            2360
Checksum:              241

Satellite: HOT BIRD 2
Catalog number: 24665
Epoch time:      103051.87295777
Element set:     343 
Inclination:        0.0602 deg
RA of node:       278.0569 deg
Eccentricity:    0.0008075
Arg of perigee:    45.8891 deg
Mean anomaly:     153.6489 deg
Mean motion:    1.00273748 rev/day
Decay rate:    8.1000E-007 rev/day^2
Epoch rev:            2328
Checksum:              410

Satellite: INMARSAT 3-F3
Catalog number: 24674
Epoch time:      103052.47617098
Element set:     991 
Inclination:        0.0749 deg
RA of node:       304.9419 deg
Eccentricity:    0.0003872
Arg of perigee:     4.9716 deg
Mean anomaly:     190.5119 deg
Mean motion:    1.00271838 rev/day
Decay rate:    3.3000E-007 rev/day^2
Epoch rev:            2261
Checksum:              287

Satellite: GOES 10
Catalog number: 24786
Epoch time:      103051.57540438
Element set:     553 
Inclination:        0.1371 deg
RA of node:       104.9959 deg
Eccentricity:    0.0002020
Arg of perigee:   250.2324 deg
Mean anomaly:     226.9955 deg
Mean motion:    1.00260087 rev/day
Decay rate:    8.2999E-007 rev/day^2
Epoch rev:            2135
Checksum:              283

Satellite: INMARSAT 3-F4
Catalog number: 24819
Epoch time:      103051.03198955
Element set:     884 
InclinationRA of node:       296.9869 deg
Eccentricity:    0.0004131
Arg of perigee:    40.8967 deg
Mean anomaly:     129.1622 deg
Mean motion:    1.00268748 rev/day
Decay rate:   -2.9099E-006 rev/day^2
Epoch rev:            2102
Checksum:              315

Satellite: FENGYUN 2A
Catalog number: 24834
Epoch time:      103051.76088528
Element set:     964 
Inclination:        2.5767 deg
RA of node:        88.4242 deg
Eccentricity:    0.0001664
Arg of perigee:   182.2325 deg
Mean anomaly:     239.2827 deg
Mean motion:    1.00281216 rev/day
Decay rate:   -2.0099E-006 rev/day^2
Epoch rev:            2086
Checksum:              296

Satellite: HOT BIRD 3
Catalog number: 24931
Epoch time:      103051.86334527
Element set:     427 
Inclination:        0.0478 deg
RA of node:       160.3357 deg
Eccentricity:    0.0010425
Arg of perigee:   174.4081 deg
Mean anomaly:     139.3861 deg
Mean motion:    1.00275316 rev/day
Decay rate:    8.1000E-007 rev/day^2
Epoch rev:            2010
Checksum:              246

Satellite: METEOSAT 7
Catalog number: 24932
Epoch time:      103051.78209523
Element set:     253 
Inclination:        0.2157 deg
RA of node:        63.2527 deg
Eccentricity:    0.0001246
Arg of perigee:   256.7058 deg
Mean anomaly:     112.4631 deg
Mean motion:    1.00280100 rev/day
Decay rate:   Epoch rev:            2004
Checksum:              261

Satellite: ASTRA 1G
Catalog number: 25071
Epoch time:      103049.00000000
Element set:     392 
Inclination:        0.0122 deg
RA of node:       319.8851 deg
Eccentricity:    0.0002995
Arg of perigee:    65.1991 deg
Mean anomaly:     141.6317 deg
Mean motion:    1.00273184 rev/day
Decay rate:    1.1600E-006 rev/day^2
Epoch rev:            1913
Checksum:              228

Satellite: INMARSAT 3-F5
Catalog number: 25153
Epoch time:      103051.79874063
Element set:     846 
Inclination:        0.4657 deg
RA of node:       353.3123 deg
Eccentricity:    0.0002894
Arg of perigee:   336.6993 deg
Mean anomaly:     132.8061 deg
Mean motion:    1.00274122 rev/day
Decay rate:    1.3500E-006 rev/day^2
Epoch rev:            1852
Checksum:              280

Satellite: HOT BIRD 4
Catalog number: 25237
Epoch time:      103051.87002466
Element set:     328 
Inclination:        0.0941 deg
RA of node:       307.5522 deg
Eccentricity:    0.0007523
Arg of perigee:   323.6559 deg
Mean anomaly:     205.4369 deg
Mean motion:    1.00273901 rev/day
Decay rate:    8.1000E-007 rev/day^2
Epoch rev:            1856
Checksum:              370

Satellite: NOAA 15
Catalog number: 25338
Epoch time:   Element set:     12 
Inclination:       98.5499 deg
RA of node:        74.2081 deg
Eccentricity:    0.0009968
Arg of perigee:   313.9964 deg
Mean anomaly:      46.0390 deg
Mean motion:   14.24246870 rev/day
Decay rate:    2.3200E-006 rev/day^2
Epoch rev:           24816
Checksum:              306

Satellite: RESURS O1-N4
Catalog number: 25394
Epoch time:      103052.23592650
Element set:     453 
Inclination:       98.6307 deg
RA of node:       130.1152 deg
Eccentricity:    0.0002388
Arg of perigee:    97.0630 deg
Mean anomaly:     263.0820 deg
Mean motion:   14.23879443 rev/day
Decay rate:    1.6499E-006 rev/day^2
Epoch rev:           23991
Checksum:              309

Satellite: TMSAT
Catalog number: 25396
Epoch time:      103051.92563611
Element set:     895 
Inclination:       98.6272 deg
RA of node:       128.9888 deg
Eccentricity:    0.0004012
Arg of perigee:   121.7023 deg
Mean anomaly:     238.4551 deg
Mean motion:   14.23511378 rev/day
Decay rate:   -4.3000E-007 rev/day^2
Epoch rev:           23986
Checksum:              305

Satellite: TECHSAT 1B
Catalog number: 25397
Epoch time:      103051.94836632
Element set:     159 
Inclination:       98.6221 deg
RA of node:       127.8867 deg
Eccentricity:    0.0002065
Arg of perigee:   123.5244 deg
Mean anomaly:    Mean motion:   14.22960932 rev/day
Decay rate:    1.0100E-006 rev/day^2
Epoch rev:           23983
Checksum:              295

Satellite: ASTRA 2A
Catalog number: 25462
Epoch time:      103051.31926416
Element set:     533 
Inclination:        0.0870 deg
RA of node:       297.6948 deg
Eccentricity:    0.0007001
Arg of perigee:   278.8390 deg
Mean anomaly:      76.4419 deg
Mean motion:    1.00266022 rev/day
Decay rate:    9.9999E-009 rev/day^2
Epoch rev:            1645
Checksum:              307

Satellite: EUTELSAT W2
Catalog number: 25491
Epoch time:      103046.86653737
Element set:     579 
Inclination:        0.0149 deRA of node:       115.2307 deg
Eccentricity:    0.0003737
Arg of perigee:   184.6991 deg
Mean anomaly:     173.4544 deg
Mean motion:    1.00271191 rev/day
Decay rate:    1.0400E-006 rev/day^2
Epoch rev:            1602
Checksum:              272

Satellite: HOT BIRD 5
Catalog number: 25495
Epoch time:      103042.93716436
Element set:     500 
Inclination:        0.0310 deg
RA of node:       255.9940 deg
Eccentricity:    0.0003377
Arg of perigee:    65.4663 deg
Mean anomaly:     190.5501 deg
Mean motion:    1.00272693 rev/day
Decay rate:    1.6499E-006 rev/day^2
Epoch rev:            1595
Checksum:              286

Satellite: SEDSATCatalog number: 25509
Epoch time:      103051.60944406
Element set:     784 
Inclination:       31.4311 deg
RA of node:       141.6443 deg
Eccentricity:    0.0357954
Arg of perigee:   320.5477 deg
Mean anomaly:      36.9584 deg
Mean motion:   14.27438864 rev/day
Decay rate:    8.1500E-006 rev/day^2
Epoch rev:           22560
Checksum:              304

Satellite: PAN SAT
Catalog number: 25520
Epoch time:      103051.66887401
Element set:     641 
Inclination:       28.4621 deg
RA of node:       209.8743 deg
Eccentricity:    0.0005318
Arg of perigee:    13.2561 deg
Mean anomaly:     346.8047 deg
Mean motion:   15.13899796 rev/day
Decay rate:    2.5760EEpoch rev:           23790
Checksum:              417

Satellite: ISS (ZARYA)
Catalog number: 25544
Epoch time:      103052.52386138
Element set:     713 
Inclination:       51.6333 deg
RA of node:       241.1562 deg
Eccentricity:    0.0012049
Arg of perigee:   229.6160 deg
Mean anomaly:     160.6986 deg
Mean motion:   15.58619412 rev/day
Decay rate:    1.8292E-004 rev/day^2
Epoch rev:           24296
Checksum:              296

